Weather observations for the past three days for
Anniston Metro Airport
Imperial (Metric)
Date Time (cdt) Wind (mph) Vis. (mi.) Weather Sky Cond. Temperature (ºF) Relative Humidity Wind Chill (°F) Heat Index (°F) Pressure Precipitation (in)
Air Dwpt 6 hour altimeter (in) sea level (mb) 1 hr 3 hr 6 hr
Max. Min.
16 04:53 Calm 10.00 Fair CLR 71.1 70 96% 30.02 1015.6
16 03:53 W 6 10.00 Fair CLR 71.1 71.1 100% 30.01 1015.2
16 02:53 SW 6 10.00 Partly Cloudy FEW002 SCT055 72 72 100% 30.03 1015.7
16 01:53 SW 3 1.50 Fog/Mist OVC002 72 72 100% 30.03 1015.8
16 00:53 Calm 2.50 Fog/Mist FEW002 72 72 75 72 100% 30.02 1015.5 0.04
15 23:53 SW 3 10.00 Fair CLR 73 72 96% 30.04 1016.2
15 22:53 Calm 10.00 Fair CLR 73.9 73 97% 30.02 1015.4
15 21:53 Calm 10.00 Fair CLR 73.9 73 97% 30.02 1015.5 0.04
15 19:53 Calm 10.00 Light Rain FEW070 FEW090 BKN110 73.9 72 94% 30.03 1015.9 0.04
15 18:53 N 13 1.00 Thunderstorm Heavy Rain Fog/Mist BKN029 BKN047 OVC070 75 72 93.9 73.9 90% 74 30.01 1015.4 0.52 0.52
15 17:53 NW 13 G 29 9.00 Thunderstorm Light Rain FEW015 SCT065 BKN110 82 71.1 69% 86 29.97 1013.7
15 16:53 S 3 10.00 Light Rain FEW055 SCT070 BKN110 84.9 73 68% 92 29.97 1013.6
15 15:53 W 6 10.00 Thunderstorm in Vicinity CLR 91.9 69.1 47% 97 29.98 1013.9
15 14:53 SW 6 10.00 Fair CLR 90 72 56% 97 30 1014.5
15 13:53 SW 8 10.00 A Few Clouds FEW075 FEW110 88 70 55% 93 30.03 1015.7
15 12:53 W 8 10.00 Fair CLR 91 71.1 91 77 52% 98 30.05 1016.4
15 11:53 SW 5 10.00 Fair CLR 89.1 72 57% 96 30.07 1017.1
15 10:53 SW 5 10.00 Fair CLR 88 73 61% 96 30.09 1017.7
15 09:53 Vrbl 3 10.00 Fair CLR 84.9 73 68% 92 30.11 1018.3
15 08:53 Calm 10.00 Fair CLR 82.9 73 72% 89 30.11 1018.4
15 07:53 Calm 9.00 Fair CLR 78.1 73 85% 81 30.11 1018.7
15 06:53 W 3 9.00 Fair CLR 77 73 79 75 88% 78 30.1 1018.0
15 05:53 SW 5 9.00 Mostly Cloudy FEW042 BKN065 BKN080 75.9 73 91% 76 30.08 1017.5
15 04:53 SW 5 10.00 A Few Clouds FEW070 75.9 73 91% 76 30.07 1016.9
15 03:53 Calm 10.00 Fair CLR 77 73.9 90% 78 30.06 1016.6
15 02:53 Calm 10.00 Fair CLR 77 73 88% 78 30.05 1016.3
15 01:53 Calm 10.00 Fair CLR 75.9 73.9 94% 75 30.06 1016.7
15 00:53 Calm 10.00 A Few Clouds FEW120 77 73.9 84.9 77 90% 78 30.07 1017.0
14 23:53 Calm 10.00 Fair CLR 78.1 73.9 87% 81 30.09 1017.5
14 22:53 Calm 10.00 Fair CLR 79 75 88% 83 30.09 1017.7
14 21:53 SW 3 10.00 Fair CLR 80.1 75 85% 85 30.09 1017.9
14 20:53 SW 5 10.00 Fair CLR 79 73.9 85% 83 30.08 1017.5
14 19:53 Calm 10.00 Fair CLR 82 73.9 77% 88 30.06 1017.1
14 18:53 S 6 10.00 Fair CLR 84 75 95 84 74% 92 30.07 1017.3
14 17:53 SW 3 10.00 A Few Clouds FEW060 84.9 72 65% 91 30.07 1017.5
14 16:53 NW 3 10.00 Fair CLR 91 66.9 45% 94 30.07 1017.0
14 15:53 SW 5 10.00 Fair CLR 93 70 47% 99 30.07 1017.1
14 14:53 SW 8 10.00 Fair CLR 95 68 41% 100 30.08 1017.4
14 13:53 SW 6 10.00 Fair CLR 93 64.9 40% 95 30.11 1018.2
14 12:53 Calm 10.00 Fair CLR 93.9 68 95 73 43% 98 30.13 1019.2
14 11:53 SW 7 10.00 Fair CLR 93 68 44% 97 30.15 1019.9
14 10:53 SW 6 10.00 Fair CLR 90 69.1 50% 95 30.16 1020.3
14 09:53 SW 5 10.00 Fair CLR 87.1 71.1 59% 93 30.17 1020.3
14 08:53 Calm 10.00 Fair CLR 84 70 63% 88 30.17 1020.4
14 07:53 E 3 10.00 Fair CLR 77 71.1 82% 79 30.18 1020.8
14 05:53 Calm 10.00 Fair CLR 70 68 93% 30.16 1020.1
14 04:53 Calm 10.00 Fair CLR 72 69.1 91% 30.14 1019.6
14 03:53 Calm 10.00 Fair CLR 72 70 94% 30.14 1019.4
14 02:53 E 3 10.00 Fair CLR 73 69.1 87% 30.13 1019.1
14 01:53 Calm 10.00 Fair CLR 73.9 71.1 91% 30.14 1019.5
14 00:53 Calm 10.00 Fair CLR 73.9 71.1 89.1 73.9 91% 30.15 1019.8
13 23:53 Calm 10.00 Fair CLR 73.9 71.1 91% 30.16 1020.2
13 22:53 Calm 10.00 Fair CLR 75.9 72 88% 76 30.17 1020.3
13 21:53 Calm 10.00 Fair CLR 78.1 71.1 79% 80 30.16 1020.3
13 20:53 Calm 10.00 Fair CLR 79 71.1 77% 82 30.15 1019.7
13 19:53 Calm 10.00 Fair CLR 82.9 72 70% 88 30.14 1019.5
13 18:53 Calm 10.00 Fair CLR 89.1 70 96.1 89.1 53% 94 30.13 1019.4
13 17:53 S 3 10.00 Fair CLR 93 66 41% 96 30.13 1019.1
13 16:53 SW 5 10.00 Fair CLR 93.9 64 37% 96 30.12 1019.0
13 15:53 SW 5 10.00 Fair CLR 95 59 30% 94 30.14 1019.4
13 14:53 SW 6 10.00 A Few Clouds FEW110 95 61 32% 95 30.16 1020.0
13 13:53 W 7 10.00 A Few Clouds FEW110 93.9 64 37% 96 30.17 1020.6
13 12:53 SW 8 10.00 A Few Clouds FEW110 93.9 64.9 93.9 71.1 38% 96 30.18 1020.9
13 11:53 SW 5 10.00 Fair CLR 91.9 64.9 41% 94 30.2 1021.3
13 10:53 Calm 10.00 Fair CLR 89.1 70 53% 94 30.21 1021.9
13 09:53 Calm 10.00 Fair CLR 86 68 55% 89 30.21 1021.9
13 08:53 SW 5 10.00 Fair CLR 82 69.1 65% 85 30.22 1022.1
13 07:53 Calm 10.00 Fair CLR 75 69.1 82% 75 30.21 1021.9
13 06:53 E 3 10.00 Fair CLR 71.1 68 73 69.1 90% 30.19 1021.3
13 05:53 E 3 10.00 Fair CLR 69.1 66.9 93% 30.17 1020.7
Date Time (cdt) Wind (mph) Vis. (mi.) Weather Sky Cond. Air Dwpt Max. Min. Relative Humidity Wind Chill (°F) Heat Index (°F) altimeter (in) sea level (mb) 1 hr 3 hr 6 hr
6 hour
Temperature (ºF) Pressure Precipitation (in)